Home   Weather   Erding   Past weeks

Flag for Germany Past Weather in Erding, Bavaria, Germany — Yesterday and Last 2 Weeks

Now
37 °F

Light rain. Partly sunny.


Feels Like: 33 °F
Forecast: 37 / 41 °F
Wind: 6 mph from West

Location: Munich / Franz Josef Strauss Airport

Current Time: Apr 27, 2017 at 9:39:21 am

Latest Report: Apr 27, 2017 at 8:50 am


Visibility: 6 mi

Pressure: 29.92 "Hg

Humidity: 93%

Dew Point: 36 °F

Location of ErdingLocation

Past Weather in Erding — Graph

°F

Erding Temperature Yesterday

Maximum temperature yesterday: 43 °F (at 12:20 am)
Minimum temperature yesterday: 37 °F (at 4:20 am)
Average temperature yesterday: 39 °F

High & Low Weather Summary for the Past Weeks

 TemperatureHumidityPressure
High64 °F (Apr 12, 4:50 pm)100% (Apr 18, 2:20 pm)30.51 "Hg (Apr 18, 2:20 pm)
Low23 °F (Apr 21, 5:50 am)32% (Apr 12, 4:20 pm)29.74 "Hg (Apr 25, 3:20 am)
Average44 °F72%30.08 "Hg
* Reported Apr 12 8:20 am — Apr 27 8:20 am, Erding, Weather by CustomWeather, © 2017

Note: Actual official high and low records may vary slightly from our data, if they occured in-between our weather recording intervals... More about our weather records

Advertising

Erding Weather History for the Previous 24 Hours

Scroll right to see more
 ConditionsComfort  
Time TempWeatherWind HumidityBarometerVisibility
8:20 am
Thu, Apr 27
37 °FLight rain. Partly sunny.2 mph93%29.89 "Hg5 mi
7:50 am37 °FLight rain. Partly sunny.6 mph93%29.89 "Hg3 mi
6:50 am36 °FLight rain. Partly sunny.6 mph100%29.89 "Hg3 mi
5:50 am36 °FLight rain. Low clouds.6 mph93%29.86 "Hg4 mi
4:50 am36 °FLight rain. Mostly cloudy.6 mph93%29.86 "HgN/A
3:50 am37 °FLight rain. Mostly cloudy.1 mph93%29.86 "HgN/A
3:20 am37 °FLight rain. Low clouds.1 mph93%29.86 "HgN/A
2:50 am37 °FLight rain. Passing clouds.1 mph93%29.86 "HgN/A
2:20 am37 °FPassing clouds.1 mph93%29.86 "HgN/A
1:50 am37 °FPassing clouds.No wind93%29.86 "HgN/A
12:50 am37 °FPartly cloudy.2 mph93%29.86 "HgN/A
11:50 pm
Wed, Apr 26
37 °FLight rain. Passing clouds.2 mph93%29.89 "HgN/A
11:20 pm39 °FLight rain. Mostly cloudy.2 mph87%29.89 "HgN/A
10:50 pm39 °FLight rain. Partly cloudy.2 mph93%29.86 "HgN/A
10:20 pm39 °FLight rain. Partly cloudy.2 mph93%29.86 "HgN/A
9:50 pm39 °FLight rain. Partly cloudy.1 mph93%29.86 "HgN/A
8:50 pm39 °FPassing clouds.2 mph87%29.86 "HgN/A
7:50 pm39 °FLight rain. Broken clouds.3 mph93%29.86 "HgN/A
7:20 pm39 °FLight rain. Mostly cloudy.2 mph93%29.86 "HgN/A
6:50 pm39 °FLight rain. Mostly cloudy.2 mph87%29.86 "HgN/A
6:20 pm39 °FLight rain. Partly sunny.3 mph87%29.86 "HgN/A
5:50 pm39 °FLight rain. Partly sunny.5 mph93%29.86 "HgN/A
5:20 pm39 °FLight rain. Partly sunny.3 mph87%29.83 "HgN/A
4:50 pm39 °FLight rain. Partly sunny.3 mph87%29.83 "HgN/A
4:20 pm39 °FLight rain. Partly sunny.3 mph87%29.83 "HgN/A
3:50 pm39 °FLight rain. Partly sunny.5 mph87%29.83 "HgN/A
3:20 pm39 °FLight rain. Partly sunny.5 mph87%29.83 "HgN/A
2:50 pm39 °FLight rain. Partly sunny.5 mph87%29.80 "HgN/A
2:20 pm39 °FLight rain. Partly sunny.6 mph87%29.80 "HgN/A
1:50 pm39 °FLight rain. Partly sunny.6 mph87%29.80 "HgN/A
1:20 pm39 °FLight rain. Partly sunny.6 mph87%29.80 "HgN/A
12:50 pm39 °FLight rain. Partly sunny.6 mph87%29.80 "HgN/A
11:50 am39 °FLight rain. Partly sunny.7 mph93%29.77 "HgN/A
11:20 am39 °FLight rain. Partly sunny.5 mph93%29.77 "HgN/A
10:50 am39 °FLight rain. Partly sunny.5 mph87%29.77 "HgN/A
10:20 am37 °FLight rain. Partly sunny.3 mph93%29.77 "HgN/A
9:50 am37 °FLight rain. Partly sunny.2 mph93%29.77 "HgN/A
9:20 am37 °FDrizzle. Partly sunny.3 mph93%29.74 "HgN/A
Weather by CustomWeather, © 2017

See weather overviewHow to use our weather pages